Location: Del Amo
(33.8464°N, 118.2104°W)
Time: 08:07:07
(UTC+00:00)

A-11 Canister half - All Passes

Search period start: 19 September 2024 00:00
Search period end: 29 September 2024 00:00
Orbit: 1515 x 1684 km, 47.2° (Epoch: 18 September)

Date Brightness Start Highest point End Pass type
(mag) Time Alt. Az. Time Alt. Az. Time Alt. Az.
19 Sep - 01:06:51 10° WSW 01:16:29 82° NW 01:25:50 10° NE daylight
19 Sep - 03:13:45 10° W 03:22:26 40° NNW 03:30:59 10° NE visible
19 Sep - 05:20:52 10° NW 05:29:25 39° NNE 05:37:55 10° E visible
19 Sep - 07:26:07 10° NW 07:35:24 79° NE 07:44:47 10° ESE visible
19 Sep - 09:31:50 10° WNW 09:39:39 32° SW 09:47:38 10° S night (unlit)
19 Sep - 22:41:26 10° S 22:49:17 29° SE 22:56:55 10° ENE daylight
20 Sep - 00:43:50 10° SW 00:53:28 86° NW 01:02:51 10° NE daylight
20 Sep - 02:50:36 10° W 02:59:20 41° NNW 03:07:56 10° NE visible
20 Sep - 04:57:48 10° NW 05:06:19 38° N 05:14:47 10° ENE visible
20 Sep - 07:03:07 10° NW 07:12:24 76° NE 07:21:45 10° ESE visible
20 Sep - 09:08:42 10° WNW 09:16:44 34° SW 09:24:54 10° S night (unlit)
20 Sep - 22:18:46 10° S 22:26:22 26° SE 22:33:44 10° ENE daylight
21 Sep - 00:20:48 10° SW 00:30:29 90° NE 00:39:52 10° NE daylight
21 Sep - 02:27:25 10° W 02:36:15 42° NNW 02:44:55 10° NE visible
21 Sep - 04:34:44 10° WNW 04:43:14 37° N 04:51:39 10° ENE visible
21 Sep - 06:40:08 10° NW 06:49:24 72° NNE 06:58:43 10° ESE visible
21 Sep - 08:45:37 10° WNW 08:53:48 37° SW 09:02:09 10° SSE night (unlit)
21 Sep - 21:56:08 10° S 22:03:26 24° SE 22:10:32 10° ENE daylight
21 Sep - 23:57:47 10° SW 00:07:30 86° SE 00:16:54 10° NE daylight
22 Sep - 02:04:16 10° W 02:13:11 43° NNW 02:21:54 10° NE visible
22 Sep - 04:11:39 10° WNW 04:20:08 37° N 04:28:31 10° ENE visible
22 Sep - 06:17:09 10° NW 06:26:24 68° NNE 06:35:39 10° ESE visible
22 Sep - 08:22:31 10° WNW 08:30:53 40° SW 08:39:23 10° SSE visible
22 Sep - 21:33:33 10° S 21:40:31 22° SE 21:47:18 10° E daylight
22 Sep - 23:34:47 10° SW 23:44:30 81° SE 23:53:54 10° NE daylight
23 Sep - 01:41:06 10° W 01:50:05 44° NNW 01:58:53 10° NE daylight
23 Sep - 03:48:34 10° WNW 03:57:02 36° N 04:05:23 10° ENE visible
23 Sep - 05:54:10 10° NW 06:03:23 65° NNE 06:12:36 10° ESE visible
23 Sep - 07:59:27 10° WNW 08:07:58 43° SW 08:16:35 10° SSE visible
23 Sep - 21:11:01 10° SSE 21:17:36 20° SE 21:24:01 10° E daylight
23 Sep - 23:11:48 10° SW 23:21:31 77° SE 23:30:56 10° NE daylight
24 Sep - 01:17:56 10° W 01:27:01 46° NNW 01:35:53 10° NE daylight
24 Sep - 03:25:28 10° WNW 03:33:56 36° N 03:42:17 10° ENE visible
24 Sep - 05:31:11 10° NW 05:40:22 62° NNE 05:49:32 10° ESE visible
24 Sep - 07:36:24 10° WNW 07:45:02 46° SW 07:53:46 10° SSE visible
24 Sep - 20:48:32 10° SSE 20:54:40 19° SE 21:00:40 10° E daylight
24 Sep - 22:48:49 10° SW 22:58:32 73° SE 23:07:56 10° ENE daylight
25 Sep - 00:54:47 10° W 01:03:57 48° NNW 01:12:53 10° NE daylight
25 Sep - 03:02:22 10° WNW 03:10:49 36° N 03:19:09 10° ENE visible
25 Sep - 05:08:11 10° NW 05:17:20 59° NNE 05:26:27 10° ESE visible
25 Sep - 07:13:21 10° WNW 07:22:06 50° SW 07:30:57 10° SSE visible
25 Sep - 20:26:08 10° SSE 20:31:45 17° SE 20:37:16 10° E daylight
25 Sep - 22:25:52 10° SW 22:35:34 69° SE 22:44:56 10° ENE daylight
26 Sep - 00:31:38 10° W 00:40:53 49° NNW 00:49:53 10° NE daylight
26 Sep - 02:39:14 10° WNW 02:47:43 36° N 02:56:03 10° ENE visible
26 Sep - 04:45:10 10° NW 04:54:18 57° NNE 05:03:22 10° ESE visible
26 Sep - 06:50:18 10° WNW 06:59:10 53° SW 07:08:06 10° SSE visible
26 Sep - 20:03:50 10° SSE 20:08:50 15° ESE 20:13:45 10° E daylight
26 Sep - 22:02:55 10° SW 22:12:35 65° SE 22:21:56 10° ENE daylight
27 Sep - 00:08:29 10° W 00:17:49 51° NNW 00:26:54 10° NE daylight
27 Sep - 02:16:06 10° WNW 02:24:36 36° N 02:32:56 10° ENE visible
27 Sep - 04:22:10 10° NW 04:31:16 54° NNE 04:40:17 10° ESE visible
27 Sep - 06:27:16 10° WNW 06:36:14 57° SW 06:45:14 10° SSE visible
27 Sep - 08:37:14 10° WSW 08:39:43 11° WSW 08:42:12 10° SW night (unlit)
27 Sep - 19:41:40 10° SSE 19:45:56 14° ESE 19:50:07 10° E daylight
27 Sep - 21:40:00 10° SSW 21:49:37 61° SE 21:58:55 10° ENE daylight
27 Sep - 23:45:19 10° WSW 23:54:45 54° NNW 00:03:54 10° NE daylight
28 Sep - 01:52:58 10° WNW 02:01:30 36° N 02:09:50 10° ENE visible
28 Sep - 03:59:09 10° NW 04:08:14 52° NNE 04:17:11 10° E visible
28 Sep - 06:04:14 10° WNW 06:13:18 61° SW 06:22:22 10° SSE visible
28 Sep - 08:13:12 10° W 08:16:49 13° WSW 08:20:29 10° SSW night (unlit)
28 Sep - 19:19:46 10° SE 19:23:01 12° ESE 19:26:14 10° ESE daylight
28 Sep - 21:17:04 10° SSW 21:26:39 57° SE 21:35:54 10° ENE daylight
28 Sep - 23:22:10 10° WSW 23:31:42 56° NNW 23:40:56 10° NE daylight
